Location: Białystok
(53.1325°N, 23.1688°E)
Time: 13:02:02
(UTC+01:00)

ISS - Visible Passes

Search period start: 24 March 2019 00:00
Search period end: 03 April 2019 01:00
Orbit: 408 x 411 km, 51.6° (Epoch: 24 March)

Date Brightness Start Highest point End Pass type
(mag) Time Alt. Az. Time Alt. Az. Time Alt. Az.
24 Mar -3.3 19:34:02 10° SW 19:37:08 39° SSE 19:37:09 39° SSE visible
25 Mar -2.7 18:43:41 10° SW 18:46:36 29° SSE 18:48:51 14° E visible
25 Mar -2.4 20:19:37 10° WSW 20:21:38 33° WSW 20:21:38 33° WSW visible
26 Mar -3.7 19:29:02 10° WSW 19:32:17 56° SSE 19:33:13 38° ESE visible
26 Mar -0.9 21:05:27 10° W 21:05:58 14° W 21:05:58 14° W visible
27 Mar -3.3 18:38:29 10° SW 18:41:40 45° SSE 18:44:41 11° E visible
27 Mar -3.2 20:14:47 10° W 20:17:27 51° WSW 20:17:27 51° WSW visible
28 Mar -3.8 19:24:08 10° WSW 19:27:25 67° S 19:28:51 30° E visible
28 Mar -1.3 21:00:39 10° W 21:01:37 18° W 21:01:37 18° W visible
29 Mar -3.6 18:33:29 10° WSW 18:36:45 61° S 18:40:02 10° E visible
29 Mar -3.5 20:09:57 10° W 20:12:58 57° SW 20:12:58 57° SW visible
30 Mar -3.8 19:19:15 10° W 19:22:32 67° S 19:24:16 25° ESE visible
30 Mar -1.4 20:55:51 10° W 20:57:01 19° WSW 20:57:01 19° WSW visible
31 Mar -3.3 21:05:05 10° W 21:08:16 44° SSW 21:08:18 44° SSW visible
01 Apr -3.5 20:14:20 10° W 20:17:36 55° SSW 20:19:35 21° ESE visible
01 Apr -1.3 21:51:12 10° W 21:52:20 16° WSW 21:52:20 16° WSW visible
02 Apr -2.5 21:00:16 10° W 21:03:10 28° SSW 21:03:36 27° SSW visible
